Starlink 11197

operational
NORAD ID: 60186 Int'l Des: 2024-124 Owner: SPXS Country: US Constellation: starlink
LEOCIRCULAR

About Starlink 11197

Description loading...

Live Position

Loading 3D Globe...

Upcoming Passes

Altitude History

Altitude vs Time

uPlot chart will show altitude changes over time

Two-Line Element Set

1 60186U 24124D 26036.95778196 -.00000659 00000-0 -58608-6 0 9998
2 60186 53.1590 317.4296 0000958 117.4384 242.6731 15.69700821 91552
Epoch: Feb 5, 2026 • Age: 8 hours

Current Status

Altitude 365.3 km
Velocity 7.70 km/s
Sub-Earth Point 51.03°N, 142.21°E
Launch Date Jul 3, 2024
Age 1.5 years
Type internet

Technical Details

Classification Payload
Mass 960.00 kg
Dry Mass 910.00 kg
Total Mass 960.00 kg
Length 0.30 m
Diameter 4.10 m
Span 29.00 m
Shape Box + pan
Manufacturer SPXS
Bus Type Starlink V2MD
Phase Status In Orbit
Owner/State SPXS/US

Large Constellations

Loading constellations...